Simultaneous Nadir Overpasses (SNOs) Predictions

Prediction of SNOs between GOES-15 and METOP-A Satellite Orbit:

Table of predicted SNOs for the next 14.0 days since TLE Epoch: 10/23/2021
Index Date Time (GOES-15) GOES-15 Lat,Lon METOP-A Lat,Lon Distance(km) Time Diff (sec)
1 10/24/2021 04:42:58 0.30,-128.32 -0.60,-132.56 481.29 80
2 10/25/2021 04:24:56 0.29,-128.34 0.45,-127.57 87.73 80
3 10/26/2021 16:41:07 -0.30,-128.37 0.51,-132.18 433.11 80
4 10/27/2021 16:23:06 -0.29,-128.38 -0.54,-127.19 135.58 80
5 10/29/2021 04:39:25 0.30,-128.38 -0.44,-131.83 392.48 80
6 10/30/2021 04:21:24 0.29,-128.39 0.61,-126.84 175.85 80
7 10/31/2021 16:37:35 -0.30,-128.41 0.35,-131.45 345.88 80
8 11/01/2021 16:19:34 -0.29,-128.42 -0.70,-126.46 222.28 80
9 11/03/2021 04:35:53 0.30,-128.41 -0.28,-131.11 306.40 80
10 11/04/2021 04:17:51 0.29,-128.42 0.77,-126.12 261.32 80
11 11/05/2021 16:34:03 -0.30,-128.43 0.18,-130.73 261.53 80
